Location: *
(50.3194°N, 7.1067°E)
Time: 21:24:17
(UTC+00:00)

Cosmos 1758 Rocket - Pass Details

Date: 22 September 2019
Orbit: 602 x 636 km, 82.5° (Epoch: 16 October)

Event Time Altitude Azimuth Distance (km) Brightness Sun altitude
Rises 20:17:48 0° 349° (N) 2,869 7.7 -25.9°
Reaches altitude 10° 20:20:01 10° 350° (N) 1,962 6.7 -26.1°
Enters shadow 20:23:22 53° 349° (N) 746 4.1 -26.6°
